CAPE
0 0 0 0 0 0 0 0 0 0 0 0 0 0 0 0 0 0 0 0 0 0 0 0 0 0 0 0 0 0 0 0 0 0 0 0 0 0 8 32 59 94 81 70 75 98 143 216 266 324 429 572 631 744 828 897 952 975 996 1013 1037 1112 1166
0 0 0 0 0 0 0 0 0 0 0 0 0 0 0 0 0 0 0 0 0 0 0 0 0 0 0 0 0 0 0 0 0 0 0 0 0 0 0 6 32 55 68 86 62 66 97 172 248 293 356 394 562 660 741 819 863 936 977 998 1012 1076 1147
0 0 0 0 0 0 0 0 0 0 0 0 0 0 0 0 0 0 0 0 0 0 0 0 0 0 0 0 0 0 0 0 0 0 0 0 0 0 0 0 0 5 34 58 60 61 66 106 240 278 312 337 425 570 679 752 817 875 940 961 996 1105 1125
0 0 0 0 0 0 0 0 0 0 0 0 0 0 0 0 0 0 0 0 0 0 0 0 0 0 0 0 0 0 0 0 0 0 0 0 0 0 0 0 0 0 3 27 42 54 55 69 136 216 264 299 361 500 671 716 768 819 874 931 1069 1125 1146
0 0 0 0 0 0 0 0 0 0 0 0 0 0 0 0 0 0 0 0 0 0 0 0 0 0 0 0 0 0 0 0 0 0 0 0 0 0 0 0 0 0 0 1 17 32 48 46 82 189 231 299 354 447 580 716 762 789 841 893 947 1131 1168
0 0 0 0 0 0 0 0 0 0 0 0 0 0 0 0 0 0 0 0 0 0 0 0 0 0 0 0 0 0 0 0 0 0 0 0 0 0 0 0 0 0 0 0 0 5 16 19 30 113 213 288 333 441 532 680 781 813 827 869 911 1016 1224
0 0 0 0 0 0 0 0 0 0 0 0 0 0 0 0 0 0 0 0 0 0 0 0 0 0 0 0 0 0 0 0 0 0 0 0 0 0 0 0 0 0 0 0 0 0 0 13 36 56 186 298 370 431 518 642 778 859 871 898 935 1038 1184
0 0 0 0 0 0 0 0 0 0 0 0 0 0 0 0 0 0 0 0 0 0 0 0 0 0 0 0 0 0 0 0 0 0 0 0 0 0 0 0 0 0 0 0 0 0 0 1 26 50 146 297 381 445 519 630 771 877 920 937 983 1072 1133
0 0 0 0 0 0 0 0 0 0 0 0 0 0 0 0 0 0 0 0 0 0 0 0 0 0 0 0 0 0 0 0 0 0 0 0 0 0 0 0 0 0 0 0 0 0 0 0 5 41 101 235 366 469 542 636 757 868 964 1004 1031 1102 1182
0 0 0 0 0 0 0 0 0 0 0 0 0 0 0 0 0 0 0 0 0 0 0 0 0 0 0 0 0 0 0 0 0 0 0 0 0 0 0 0 0 0 0 0 0 0 0 0 0 27 88 193 323 457 585 670 753 845 989 1076 1119 1176 1255
0 0 0 0 0 0 0 0 0 0 0 0 0 0 0 0 0 0 0 0 0 0 0 0 0 0 0 0 0 0 0 0 0 0 0 0 0 0 0 0 0 0 0 0 0 0 0 0 0 1 46 145 284 467 601 688 762 852 1000 1138 1231 1262 1327
0 0 0 0 0 0 0 0 0 0 0 0 0 0 0 0 0 0 0 0 0 0 0 0 0 0 0 0 0 0 0 0 0 0 0 0 0 0 0 0 0 0 0 0 0 0 0 0 0 0 23 122 276 454 598 706 798 880 1015 1202 1296 1354 1420
0 0 0 0 0 0 0 0 0 0 0 0 0 0 0 0 0 0 0 0 0 0 0 0 0 0 0 0 0 0 0 0 0 0 0 0 0 0 0 0 0 0 0 0 0 0 0 0 0 0 17 109 271 458 598 724 828 934 1092 1219 1373 1452 1498
0 0 0 0 0 0 0 0 0 0 0 0 0 0 0 0 0 0 0 0 0 0 0 0 0 0 0 0 0 0 0 0 0 0 0 0 0 0 0 0 0 0 0 0 0 0 0 0 0 0 14 124 286 485 632 766 880 975 1100 1286 1420 1521 1582
0 0 0 0 0 0 0 0 0 0 0 0 0 0 0 0 0 0 0 0 0 0 0 0 0 0 0 0 0 0 0 0 0 0 0 0 0 0 0 0 0 0 0 0 0 0 0 0 0 2 24 113 283 469 636 788 918 1024 1153 1352 1444 1553 1676
0 0 0 0 0 0 0 0 0 0 0 0 0 0 0 0 0 0 0 0 0 0 0 0 0 0 0 0 0 0 0 0 0 0 0 0 0 0 0 0 0 0 0 0 0 0 0 6 16 24 69 141 308 471 653 811 944 1038 1174 1361 1479 1621 1710
0 0 0 0 0 0 0 0 0 0 0 0 0 0 0 0 0 0 0 0 0 0 0 0 0 0 0 0 0 0 0 0 0 0 0 0 0 0 0 0 0 0 0 0 0 5 9 28 64 86 148 204 354 540 733 854 1002 1094 1214 1386 1547 1674 1750
0 0 0 0 0 0 0 0 0 0 0 0 0 0 0 0 0 0 0 0 0 0 0 0 0 0 0 0 0 0 0 0 0 0 0 0 0 0 0 0 0 0 0 0 0 1 38 76 132 181 232 264 402 573 756 896 1028 1178 1307 1437 1591 1703 1812
0 0 0 0 0 0 0 0 0 0 0 0 0 0 0 0 0 0 0 0 0 0 0 0 0 0 6 155 596 1120 812 980 860 544 99 0 0 0 0 0 0 0 0 0 0 0 21 76 156 260 302 363 533 633 816 954 1094 1270 1356 1488 1589 1736 1844
0 0 0 0 0 0 0 0 0 0 0 0 0 0 0 0 0 0 0 0 0 0 0 0 0 0 112 822 904 1129 995 878 1066 820 776 884 930 279 0 0 0 0 0 0 0 10 98 186 203 281 451 521 617 740 855 1010 1107 1245 1413 1510 1606 1732 1859
0 0 0 0 0 0 0 0 0 0 0 0 0 0 0 0 0 0 0 0 0 0 0 0 0 0 0 57 534 1085 1292 963 956 1081 977 1032 1186 1080 944 492 0 0 0 0 0 45 199 255 277 326 522 661 765 852 924 1031 1163 1262 1408 1536 1628 1742 1881
0 0 0 0 0 0 0 0 0 0 0 0 0 0 0 0 0 0 0 0 0 0 0 0 0 0 0 0 2 1145 1169 1268 1029 1069 1159 1023 1111 1092 1020 1036 974 845 332 0 16 53 179 324 397 513 556 780 970 995 1064 1131 1211 1324 1414 1572 1668 1784 1888
0 0 0 0 0 0 0 0 0 0 0 0 0 0 0 0 0 241 0 0 0 0 0 0 0 0 0 0 0 1266 1052 1050 1135 1083 1132 1233 1352 1515 1512 1326 1277 1261 1148 789 233 140 158 340 518 636 651 806 1033 1135 1208 1232 1299 1379 1456 1579 1684 1780 1939
0 0 0 0 0 0 0 0 0 0 0 0 0 0 0 306 0 0 0 0 379 0 0 0 0 0 0 0 0 1317 1246 951 1106 1075 1216 1442 1729 1926 2033 1965 1890 1690 1237 865 826 765 704 631 524 746 813 868 1046 1208 1305 1352 1372 1415 1484 1586 1669 1829 1965
0 0 0 0 0 0 0 0 0 0 0 0 0 0 0 0 0 172 453 600 424 0 0 0 0 0 318 108 1117 1304 1262 1134 1107 1228 1196 1302 1589 1933 2302 2491 2374 2306 1933 1508 1205 1289 1268 939 893 813 978 983 1015 1133 1277 1369 1440 1502 1532 1543 1616 1768 1944
0 0 0 0 0 0 0 0 0 0 0 0 0 0 0 25 120 670 670 782 689 41 2 6 18 351 501 1182 1460 1346 1266 1277 1160 1118 1279 1338 1369 1529 1954 2469 2878 2845 2650 2386 2150 2058 1980 1609 1146 1097 1048 1120 1137 1224 1268 1338 1476 1555 1567 1591 1648 1732 1797
0 1 0 0 0 16 1 3 0 0 0 0 0 0 0 177 754 639 784 626 666 186 151 255 487 994 1264 1125 1208 1256 1180 1187 1143 1163 1164 1120 1086 1202 1404 1718 2066 2659 3088 3029 2815 2611 2326 2152 1783 1396 1242 1227 1233 1368 1452 1502 1516 1530 1575 1646 1683 1711 1760
2 1 0 0 0 58 22 30 0 0 0 0 0 0 376 674 683 756 620 720 523 501 434 1053 1255 1165 1268 1189 1100 1160 1128 1076 1090 1089 1172 1153 1104 1132 1342 1495 1676 1940 2316 2788 3204 3207 2928 2603 2375 2174 1899 1756 1488 1345 1530 1607 1624 1614 1642 1694 1730 1751 1769
112 5 0 12 40 123 134 89 18 53 12 0 0 285 592 474 936 692 954 860 854 902 1271 1516 1406 1350 1151 1177 1068 965 956 785 822 888 918 948 952 1000 1123 1273 1398 1590 1787 1964 2244 2814 3328 3397 3092 2746 2670 2424 2268 2140 2038 1960 1896 1811 1778 1845 1837 1844 1866
91 65 294 256 219 154 132 36 48 58 73 63 162 544 514 592 642 1010 1060 1265 1256 1245 1205 1225 1129 991 965 942 777 747 702 635 620 694 540 504 648 864 965 998 1223 1262 1532 1646 1796 1862 2083 2511 3222 3497 3422 3264 3004 2851 2719 2736 2672 2512 2398 2318 2247 2113 2098
50 64 379 247 93 155 131 68 108 95 68 175 385 622 523 581 630 930 1014 1201 1024 834 770 825 928 863 753 710 676 618 590 552 464 424 486 570 593 642 658 1025 1063 1234 1238 1491 1581 1617 1605 1929 1975 2121 2588 3194 3594 3522 3430 3287 3220 3094 2954 2876 2851 2833 2805
26 3 292 237 202 154 158 63 116 118 171 414 656 528 394 448 593 539 458 452 546 594 588 600 654 693 652 657 670 664 642 646 632 550 517 616 712 676 698 796 924 1002 1168 1403 1697 1958 1893 2037 2064 2044 2019 2152 2232 2538 3066 3519 3642 3484 3403 3236 3247 3190 3184
10 45 320 302 198 132 150 25 70 102 148 442 620 472 374 324 273 163 112 312 435 452 494 620 611 757 806 888 911 846 811 852 814 725 664 668 676 713 750 791 844 954 1054 1168 1617 2032 2005 2184 2226 2126 2125 2165 2156 2230 2220 2248 2494 3110 3561 3674 3706 3619 3508
11 3 220 302 38 6 69 49 56 58 75 273 204 292 288 114 205 141 162 39 55 499 460 512 648 808 916 895 970 980 970 912 914 894 848 830 758 780 802 921 1003 1000 1020 1176 1690 1887 1805 1791 1827 1893 1962 1934 1928 1869 2011 2185 2290 2456 2681 3013 3258 3448 3511
5 37 242 319 308 10 50 42 65 74 22 76 218 84 156 25 20 14 97 65 18 75 490 444 716 826 1030 1106 1078 1058 992 983 986 978 958 924 940 893 912 1058 1184 1203 1119 1146 1243 1252 1345 1425 1618 1746 1808 1828 1701 1537 1451 1458 1639 1944 2313 2575 2710 2934 3266
6 53 220 314 197 50 100 110 114 58 0 3 64 127 69 50 43 7 82 244 201 43 294 494 617 658 760 1053 1014 944 995 992 952 1049 1041 1068 1101 1179 1250 1297 1384 1443 1402 1386 1416 1420 1447 1532 1488 1534 1624 1576 1507 1389 1293 1370 1515 1719 1896 2112 2315 2456 2623
34 46 44 186 88 66 52 50 90 30 0 8 34 65 41 27 9 17 298 472 473 529 564 496 396 452 760 960 865 921 968 980 1034 1027 1040 997 926 976 1018 1090 1155 1171 1202 1251 1283 1298 1298 1347 1411 1319 1313 1308 1217 1140 1203 1210 1278 1348 1454 1582 1739 1903 2046
Wind_Speed
nan nan nan nan nan nan nan nan nan nan nan nan nan nan nan nan nan nan nan nan nan nan nan nan nan nan nan nan nan nan nan nan nan nan nan nan nan nan nan nan nan nan nan nan nan nan 8 10 13 14 15 15 14 12 11 12 12 12 13 14 13 12 11
nan nan nan nan nan nan nan nan nan nan nan nan nan nan nan nan nan nan nan nan nan nan nan nan nan nan nan nan nan nan nan nan nan nan nan nan nan nan nan nan nan nan nan nan nan nan nan 10 13 14 14 15 13 12 12 12 12 12 11 11 10 10 11
nan nan nan nan nan nan nan nan nan nan nan nan nan nan nan nan nan nan nan nan nan nan nan nan nan nan nan nan nan nan nan nan nan nan nan nan nan nan nan nan nan nan nan nan nan nan nan 10 11 12 14 16 15 13 11 10 11 11 11 10 10 10 10
nan nan nan nan nan nan nan nan nan nan nan nan nan nan nan nan nan nan nan nan nan nan nan nan nan nan nan nan nan nan nan nan nan nan nan nan nan nan nan nan nan nan nan nan nan nan nan nan 10 11 14 16 16 15 12 9 7 7 7 7 8 9 10
nan nan nan nan nan nan nan nan nan nan nan nan nan nan nan nan nan nan nan nan nan nan nan nan nan nan nan nan nan nan nan nan nan nan nan nan nan nan nan nan nan nan nan nan nan nan nan nan nan 13 17 17 15 16 13 10 10 9 8 9 10 10 11
nan nan nan nan nan nan nan nan nan nan nan nan nan nan nan nan nan nan nan nan nan nan nan nan nan nan nan nan nan nan nan nan nan nan nan nan nan nan nan nan nan nan nan nan nan nan nan nan nan 16 17 16 16 16 13 12 10 8 8 9 10 12 13
nan nan nan nan nan nan nan nan nan nan nan nan nan nan nan nan nan nan nan nan nan nan nan nan nan nan nan nan nan nan nan nan nan nan nan nan nan nan nan nan nan nan nan nan nan nan nan nan nan nan 18 18 17 16 15 14 13 10 10 10 12 14 15
nan nan nan nan nan nan nan nan nan nan nan nan nan nan nan nan nan nan nan nan nan nan nan nan nan nan nan nan nan nan nan nan nan nan nan nan nan nan nan nan nan nan nan nan nan nan nan nan nan nan 18 18 17 15 15 16 14 12 11 11 13 15 15
nan nan nan nan nan nan nan nan nan nan nan nan nan nan nan nan nan nan nan nan nan nan nan nan nan nan nan nan nan nan nan nan nan nan nan nan nan nan nan nan nan nan nan nan nan nan nan nan nan nan 18 18 17 15 15 15 14 13 12 13 15 15 16
nan nan nan nan nan nan nan nan nan nan nan nan nan nan nan nan nan nan nan nan nan nan nan nan nan nan nan nan nan nan nan nan nan nan nan nan nan nan nan nan nan nan nan nan nan nan nan nan nan nan nan 18 17 15 14 14 13 15 14 15 16 17 16
nan nan nan nan nan nan nan nan nan nan nan nan nan nan nan nan nan nan nan nan nan nan nan nan nan nan nan nan nan nan nan nan nan nan nan nan nan nan nan nan nan nan nan nan nan nan nan nan nan nan nan 17 16 14 12 11 13 15 16 17 17 17 17
nan nan nan nan nan nan nan nan nan nan nan nan nan nan nan nan nan nan nan nan nan nan nan nan nan nan nan nan nan nan nan nan nan nan nan nan nan nan nan nan nan nan nan nan nan nan nan nan nan nan nan 15 14 13 10 10 12 14 16 18 17 16 16
nan nan nan nan nan nan nan nan nan nan nan nan nan nan nan nan nan nan nan nan nan nan nan nan nan nan nan nan nan nan nan nan nan nan nan nan nan nan nan nan nan nan nan nan nan nan nan nan nan nan nan 15 14 12 11 12 13 12 15 18 17 17 17
nan nan nan nan nan nan nan nan nan nan nan nan nan nan nan nan nan nan nan nan nan nan nan nan nan nan nan nan nan nan nan nan nan nan nan nan nan nan nan nan nan nan nan nan nan nan nan nan nan nan nan 17 17 15 14 14 13 13 17 17 17 17 18
nan nan nan nan nan nan nan nan nan nan nan nan nan nan nan nan nan nan nan nan nan nan nan nan nan nan nan nan nan nan nan nan nan nan nan nan nan nan nan nan nan nan nan nan nan nan nan nan nan nan nan 19 19 17 15 16 15 16 19 17 16 17 18
nan nan nan nan nan nan nan nan nan nan nan nan nan nan nan nan nan nan nan nan nan nan nan nan nan nan nan nan nan nan nan nan nan nan nan nan nan nan nan nan nan nan nan nan nan nan nan nan nan nan nan 20 22 19 18 16 16 20 19 17 16 15 16
nan nan nan nan nan nan nan nan nan nan nan nan nan nan nan nan nan nan nan nan nan nan nan nan nan nan nan nan nan nan nan nan nan nan nan nan nan nan nan nan nan nan nan nan nan nan nan nan nan nan 19 22 23 23 22 19 22 22 19 19 17 14 14
nan nan nan nan nan nan nan nan nan nan nan nan nan nan nan nan nan nan nan nan nan nan nan nan nan nan nan nan nan nan nan nan nan nan nan nan nan nan nan nan nan nan nan nan nan nan nan nan 9 10 16 19 21 24 25 28 29 23 20 18 18 16 16
nan nan nan nan nan nan nan nan nan nan nan nan nan nan nan nan nan nan nan nan nan nan nan nan nan nan nan 41 38 36 36 36 36 32 nan nan nan nan nan nan nan nan nan nan nan nan nan nan 14 17 16 14 19 26 29 28 26 25 22 20 18 17 18
nan nan nan nan nan nan nan nan nan nan nan nan nan nan nan nan nan nan nan nan nan nan nan nan nan nan 40 42 40 39 37 37 38 37 33 33 35 33 nan nan nan nan nan nan nan nan nan 21 20 17 15 18 21 22 25 24 23 22 21 19 18 19 19
nan nan nan nan nan nan nan nan nan nan nan nan nan nan nan nan nan nan nan nan nan nan nan nan nan nan nan nan 41 38 40 38 37 37 35 34 34 34 33 31 nan nan nan nan nan nan 28 26 24 18 20 22 21 23 24 23 22 21 21 19 19 20 20
nan nan nan nan nan nan nan nan nan nan nan nan nan nan nan nan nan nan nan nan nan nan nan nan nan nan nan nan nan 40 40 39 38 38 37 36 35 35 35 36 35 33 32 nan nan nan 32 30 27 26 26 24 24 24 25 27 26 24 22 18 20 21 22
nan nan nan nan nan nan nan nan nan nan nan nan nan nan nan nan nan 64 nan nan nan nan nan nan nan nan nan nan nan 40 41 40 40 39 39 38 37 36 37 39 40 37 35 35 34 35 36 34 33 32 29 28 26 25 27 27 26 25 21 20 23 23 23
nan nan nan nan nan nan nan nan nan nan nan nan nan nan nan 60 nan nan nan nan 42 nan nan nan nan nan nan nan nan 42 42 40 40 40 39 39 40 41 41 44 42 39 40 41 42 40 39 38 39 37 34 31 29 28 27 26 25 24 22 22 23 22 26
nan nan nan nan nan nan nan nan nan nan nan nan nan nan nan nan nan 55 51 47 45 nan nan nan nan nan 47 48 51 48 45 43 43 42 42 40 40 43 47 48 46 48 48 48 48 48 44 40 41 40 39 36 33 33 32 30 25 24 24 25 26 28 31
nan nan nan nan nan nan nan nan nan nan nan nan nan nan nan nan 56 53 51 52 50 nan nan nan nan 52 50 53 52 51 47 45 43 42 44 46 44 46 46 51 51 49 51 53 53 52 50 48 43 42 42 40 37 38 36 31 27 27 31 33 32 33 36
nan nan nan nan nan nan nan nan nan nan nan nan nan nan nan 62 57 56 55 53 54 53 53 51 53 54 54 53 53 51 50 47 45 45 47 51 53 53 53 57 58 55 56 57 55 54 52 50 50 46 43 42 40 39 36 29 30 35 35 35 37 38 38
nan nan nan nan nan nan nan nan nan nan nan nan nan nan 62 61 56 56 53 55 56 55 52 49 52 52 53 53 52 52 52 51 48 49 49 50 52 54 55 56 57 59 59 58 58 57 55 55 53 53 50 44 42 39 34 37 40 39 37 38 40 39 38
84 nan nan nan nan 74 67 nan nan nan nan nan nan 65 63 59 58 54 53 55 56 58 55 50 50 52 54 54 53 52 51 51 52 53 52 51 52 54 54 55 57 59 60 60 60 60 60 59 56 57 54 54 51 46 45 44 42 42 43 44 44 43 42
nan nan 79 84 81 70 64 nan nan nan nan nan 64 61 60 60 55 53 54 54 58 61 61 56 53 56 54 54 55 55 54 54 53 53 52 52 51 51 53 55 57 58 59 60 61 61 61 61 59 58 59 58 57 50 47 48 49 47 46 47 46 44 44
nan nan 76 82 nan 69 62 nan 62 nan nan 59 57 58 57 54 54 54 57 55 58 63 65 66 59 57 56 55 55 57 57 57 55 55 55 55 55 55 55 54 53 54 56 59 61 62 62 61 59 59 60 58 57 55 54 53 53 52 50 45 44 44 42
nan nan 70 77 78 71 62 nan 63 62 55 53 55 57 57 55 52 55 55 54 59 60 66 66 65 60 59 59 58 60 61 58 56 55 53 53 54 53 51 51 50 50 54 57 58 59 58 56 55 55 55 56 55 55 54 53 51 50 49 46 42 39 39
nan nan 58 68 77 76 68 nan nan 60 53 54 59 61 63 60 60 61 60 58 56 61 64 66 65 60 58 59 60 62 61 60 58 56 54 54 54 53 54 52 51 51 52 55 56 56 54 51 52 51 52 51 50 51 49 48 46 49 48 47 46 44 43
nan nan 51 56 nan nan nan nan nan nan nan 59 61 62 63 63 66 67 64 nan nan 65 68 69 66 61 58 60 60 66 66 65 62 60 59 58 56 55 55 54 52 51 52 54 57 54 51 49 50 50 51 50 50 50 50 50 50 51 50 50 50 51 52
nan nan 55 51 56 nan nan nan nan nan nan nan 66 nan 59 nan nan nan nan nan nan nan 71 69 67 62 60 61 61 64 68 67 64 62 62 62 61 59 58 58 56 53 51 51 53 53 51 49 50 51 51 51 51 50 50 51 51 52 51 51 50 51 52
nan nan 48 48 51 nan 70 67 64 nan nan nan nan 62 nan nan nan nan nan 66 68 nan 67 67 67 62 57 58 60 66 68 67 67 67 66 65 64 62 60 59 57 54 51 50 50 50 49 49 52 52 53 51 50 50 50 50 52 54 54 53 52 52 52
nan nan nan 47 nan nan nan nan nan nan nan nan nan nan nan nan nan nan 63 63 64 67 67 67 66 61 52 51 58 64 65 65 66 68 69 69 68 64 61 60 58 55 51 49 49 49 50 51 51 53 55 53 51 52 53 53 53 54 54 53 53 52 51
Wind_Direction
nan nan nan nan nan nan nan nan nan nan nan nan nan nan nan nan nan nan nan nan nan nan nan nan nan nan nan nan nan nan nan nan nan nan nan nan nan nan nan nan nan nan nan nan nan nan 286 287 287 301 313 316 325 315 308 314 316 316 325 331 330 318 313
nan nan nan nan nan nan nan nan nan nan nan nan nan nan nan nan nan nan nan nan nan nan nan nan nan nan nan nan nan nan nan nan nan nan nan nan nan nan nan nan nan nan nan nan nan nan nan 298 301 307 314 312 307 301 308 315 316 329 330 325 325 316 316
nan nan nan nan nan nan nan nan nan nan nan nan nan nan nan nan nan nan nan nan nan nan nan nan nan nan nan nan nan nan nan nan nan nan nan nan nan nan nan nan nan nan nan nan nan nan nan 309 301 303 306 300 290 290 301 315 330 341 335 322 326 318 319
nan nan nan nan nan nan nan nan nan nan nan nan nan nan nan nan nan nan nan nan nan nan nan nan nan nan nan nan nan nan nan nan nan nan nan nan nan nan nan nan nan nan nan nan nan nan nan nan 294 290 289 283 293 297 303 312 320 310 306 320 324 327 325
nan nan nan nan nan nan nan nan nan nan nan nan nan nan nan nan nan nan nan nan nan nan nan nan nan nan nan nan nan nan nan nan nan nan nan nan nan nan nan nan nan nan nan nan nan nan nan nan nan 275 275 286 294 291 299 310 314 319 329 340 332 328 314
nan nan nan nan nan nan nan nan nan nan nan nan nan nan nan nan nan nan nan nan nan nan nan nan nan nan nan nan nan nan nan nan nan nan nan nan nan nan nan nan nan nan nan nan nan nan nan nan nan 268 272 276 281 286 297 303 307 313 337 336 328 320 316
nan nan nan nan nan nan nan nan nan nan nan nan nan nan nan nan nan nan nan nan nan nan nan nan nan nan nan nan nan nan nan nan nan nan nan nan nan nan nan nan nan nan nan nan nan nan nan nan nan nan 276 279 284 296 301 297 309 334 336 332 316 310 322
nan nan nan nan nan nan nan nan nan nan nan nan nan nan nan nan nan nan nan nan nan nan nan nan nan nan nan nan nan nan nan nan nan nan nan nan nan nan nan nan nan nan nan nan nan nan nan nan nan nan 272 278 283 287 292 295 317 337 325 306 302 313 326
nan nan nan nan nan nan nan nan nan nan nan nan nan nan nan nan nan nan nan nan nan nan nan nan nan nan nan nan nan nan nan nan nan nan nan nan nan nan nan nan nan nan nan nan nan nan nan nan nan nan 277 280 284 287 288 299 314 320 305 293 301 316 324
nan nan nan nan nan nan nan nan nan nan nan nan nan nan nan nan nan nan nan nan nan nan nan nan nan nan nan nan nan nan nan nan nan nan nan nan nan nan nan nan nan nan nan nan nan nan nan nan nan nan nan 284 286 288 298 303 303 291 293 292 305 310 316
nan nan nan nan nan nan nan nan nan nan nan nan nan nan nan nan nan nan nan nan nan nan nan nan nan nan nan nan nan nan nan nan nan nan nan nan nan nan nan nan nan nan nan nan nan nan nan nan nan nan nan 286 287 289 299 294 280 281 288 293 301 309 316
nan nan nan nan nan nan nan nan nan nan nan nan nan nan nan nan nan nan nan nan nan nan nan nan nan nan nan nan nan nan nan nan nan nan nan nan nan nan nan nan nan nan nan nan nan nan nan nan nan nan nan 281 287 289 291 276 269 272 275 291 300 308 311
nan nan nan nan nan nan nan nan nan nan nan nan nan nan nan nan nan nan nan nan nan nan nan nan nan nan nan nan nan nan nan nan nan nan nan nan nan nan nan nan nan nan nan nan nan nan nan nan nan nan nan 275 272 269 266 264 270 285 288 294 303 310 313
nan nan nan nan nan nan nan nan nan nan nan nan nan nan nan nan nan nan nan nan nan nan nan nan nan nan nan nan nan nan nan nan nan nan nan nan nan nan nan nan nan nan nan nan nan nan nan nan nan nan nan 281 286 290 291 289 293 301 291 302 312 316 324
nan nan nan nan nan nan nan nan nan nan nan nan nan nan nan nan nan nan nan nan nan nan nan nan nan nan nan nan nan nan nan nan nan nan nan nan nan nan nan nan nan nan nan nan nan nan nan nan nan nan nan 288 286 289 288 291 301 300 299 307 317 325 336
nan nan nan nan nan nan nan nan nan nan nan nan nan nan nan nan nan nan nan nan nan nan nan nan nan nan nan nan nan nan nan nan nan nan nan nan nan nan nan nan nan nan nan nan nan nan nan nan nan nan nan 282 279 279 278 285 291 287 293 301 316 330 336
nan nan nan nan nan nan nan nan nan nan nan nan nan nan nan nan nan nan nan nan nan nan nan nan nan nan nan nan nan nan nan nan nan nan nan nan nan nan nan nan nan nan nan nan nan nan nan nan nan nan 304 293 293 292 285 286 273 275 289 297 304 317 315
nan nan nan nan nan nan nan nan nan nan nan nan nan nan nan nan nan nan nan nan nan nan nan nan nan nan nan nan nan nan nan nan nan nan nan nan nan nan nan nan nan nan nan nan nan nan nan nan 286 295 292 300 297 287 281 271 271 278 285 289 294 305 300
nan nan nan nan nan nan nan nan nan nan nan nan nan nan nan nan nan nan nan nan nan nan nan nan nan nan nan 241 242 233 229 231 234 232 nan nan nan nan nan nan nan nan nan nan nan nan nan nan 249 248 257 270 264 260 263 273 280 286 292 292 292 294 294
nan nan nan nan nan nan nan nan nan nan nan nan nan nan nan nan nan nan nan nan nan nan nan nan nan nan 243 239 237 236 232 229 228 231 228 219 216 212 nan nan nan nan nan nan nan nan nan 234 242 249 259 265 267 272 275 282 283 287 287 283 283 280 285
nan nan nan nan nan nan nan nan nan nan nan nan nan nan nan nan nan nan nan nan nan nan nan nan nan nan nan nan 237 237 233 226 224 227 228 224 219 218 216 220 nan nan nan nan nan nan 243 247 247 242 238 248 255 258 266 274 278 278 275 276 277 281 288
nan nan nan nan nan nan nan nan nan nan nan nan nan nan nan nan nan nan nan nan nan nan nan nan nan nan nan nan nan 238 232 229 220 219 224 226 225 222 220 224 226 224 225 nan nan nan 257 259 259 250 249 252 252 251 256 262 270 273 277 284 282 280 284
nan nan nan nan nan nan nan nan nan nan nan nan nan nan nan nan nan 229 nan nan nan nan nan nan nan nan nan nan nan 242 237 231 226 221 222 224 225 223 222 224 227 225 225 232 240 250 255 260 257 257 259 263 264 264 267 274 279 286 293 290 281 280 283
nan nan nan nan nan nan nan nan nan nan nan nan nan nan nan 230 nan nan nan nan 231 nan nan nan nan nan nan nan nan 247 241 236 232 228 227 226 224 222 220 223 229 232 229 235 242 246 252 254 256 260 264 267 267 270 274 275 278 288 294 288 280 277 273
nan nan nan nan nan nan nan nan nan nan nan nan nan nan nan nan nan 220 225 226 229 nan nan nan nan nan 242 246 249 247 243 241 236 233 231 230 227 223 220 220 223 231 233 234 235 236 236 246 255 258 263 267 268 270 273 275 284 294 293 279 268 265 268
nan nan nan nan nan nan nan nan nan nan nan nan nan nan nan nan 217 219 226 227 229 nan nan nan nan 249 247 249 249 250 247 242 238 235 234 235 235 230 226 224 224 229 234 235 234 232 232 233 243 256 263 265 265 264 270 281 291 289 271 264 263 265 269
nan nan nan nan nan nan nan nan nan nan nan nan nan nan nan 223 219 219 222 228 228 231 237 240 248 250 249 248 248 247 245 243 238 234 232 231 230 227 224 223 224 227 230 233 235 236 234 236 238 243 256 265 266 270 274 281 277 269 268 267 268 269 272
nan nan nan nan nan nan nan nan nan nan nan nan nan nan 228 225 223 221 223 228 230 232 237 239 242 246 248 247 247 244 242 242 240 236 234 233 233 232 231 228 227 229 232 232 233 234 236 237 239 242 246 253 260 268 272 261 264 268 269 269 269 272 275
220 nan nan nan nan 231 229 nan nan nan nan nan nan 236 238 230 226 223 226 227 229 233 234 234 239 241 239 242 244 245 244 243 241 239 236 233 232 234 234 233 232 233 234 235 236 235 235 236 238 240 244 249 250 253 251 252 262 268 272 273 276 278 281
nan nan 220 229 228 226 230 nan nan nan nan nan 236 234 238 239 233 231 228 227 232 234 233 233 233 237 239 240 241 242 243 241 239 238 237 235 236 237 238 237 236 237 237 238 239 239 237 237 238 240 243 246 248 248 248 251 255 260 267 272 274 278 279
nan nan 227 225 nan 223 224 nan 234 nan nan 237 236 235 233 232 230 229 235 233 231 235 236 234 230 231 234 239 239 240 243 242 238 236 235 234 232 232 232 234 238 239 239 240 240 240 240 240 242 242 243 246 249 251 251 252 254 256 260 266 271 275 277
nan nan 224 224 222 220 222 nan 229 233 234 233 234 234 230 227 226 226 224 230 235 235 235 233 230 226 228 233 237 239 240 242 241 238 238 238 238 236 234 232 232 235 237 240 242 243 244 244 245 246 248 248 247 247 250 253 256 259 263 267 271 271 274
nan nan 217 225 222 216 219 nan nan 229 230 228 223 229 230 227 226 223 224 224 227 233 239 238 236 233 231 232 234 237 237 239 240 241 243 244 245 242 238 234 234 236 237 239 240 241 241 242 244 245 245 247 246 247 248 250 254 258 261 262 264 264 267
nan nan 216 228 nan nan nan nan nan nan nan 228 229 232 233 228 222 220 218 nan nan 227 234 240 243 242 235 231 231 236 237 237 238 241 244 246 247 246 245 244 243 242 241 241 241 241 241 241 242 242 243 243 244 246 247 250 253 255 256 258 258 258 258
nan nan 205 216 218 nan nan nan nan nan nan nan 229 nan 227 nan nan nan nan nan nan nan 224 231 240 240 232 223 224 231 235 235 236 239 243 246 247 247 246 247 248 249 246 242 242 242 243 245 246 247 247 246 248 250 252 255 257 258 259 260 260 258 257
nan nan 193 208 212 nan 208 213 218 nan nan nan nan 224 nan nan nan nan nan 206 209 nan 218 223 231 229 216 209 213 223 227 231 234 238 241 243 245 246 246 249 252 253 251 247 243 242 243 247 251 253 254 254 254 254 256 259 261 263 263 265 264 264 263
nan nan nan 203 nan nan nan nan nan nan nan nan nan nan nan nan nan nan 210 206 207 211 216 220 224 222 208 198 205 215 223 226 230 236 240 242 242 243 244 247 250 252 253 252 251 250 249 250 252 256 259 258 256 256 257 259 261 264 265 266 266 265 266